Flag for U.S.A. Weather past 2 weeks in Owensboro, Kentucky, U.S.A.

Now
67 °F

Clear.


Feels Like: 67 °F
Forecast: 58 / 82 °F
Wind: 5 mph from South

Location: Owensboro / Daviess

Current Time: May 3, 2015 at 9:18:06 PM

Latest Report: May 3, 2015 at 8:56 PM


Visibility: 10 mi

Pressure: 30.07 "Hg

Humidity: 59%

Dew point: 52 °F

Location of OwensboroLocation

Historic Weather in Owensboro — Graph

°F

Owensboro temperature yesterday

Maximum temperature yesterday: 75 °F (at 1:56 PM)
Minimum temperature yesterday: 48 °F (at 5:56 AM)
Average temperature yesterday: 63 °F

Past Weeks' High & Low Weather Summary

 TemperatureHumidityPressure
High80 °F (Apr 25, 3:56 PM)100% (Apr 19, 6:56 AM)30.16 "Hg (Apr 19, 6:56 AM)
Low38 °F (Apr 23, 3:56 AM)24% (Apr 24, 11:56 AM)29.44 "Hg (Apr 25, 5:59 PM)
Average58 °F62%29.90 "Hg
* Reported Apr 18 7:56 PM — May 3 7:56 PM, Owensboro, Weather by CustomWeather, © 2015

Note: Actual official high and low records may vary slightly from our data, if they occured in-between our weather recording intervals... More about our weather records

Advertising

Owensboro weather history for previous 24 hours

 ConditionsComfort  
Time TempWeatherWind HumidityBarometerVisibility
7:56 PM
Sun, May 3
69 °FClear.5 mph57%30.05 "Hg10 mi
6:56 PM74 °FSunny.9 mph50%30.04 "Hg10 mi
5:56 PM79 °FSunny.10 mph39%30.04 "Hg10 mi
4:56 PM80 °FSunny.12 mph38%30.04 "Hg10 mi
3:56 PM80 °FSunny.9 mph35%30.04 "Hg10 mi
2:56 PM80 °FPassing clouds.13 mph39%30.06 "Hg10 mi
1:56 PM79 °FSunny.10 mph39%30.07 "Hg10 mi
12:56 PM78 °FSunny.9 mph41%30.09 "Hg10 mi
11:56 AM77 °FSunny.8 mph42%30.11 "Hg10 mi
10:56 AM72 °FPassing clouds.6 mph53%30.12 "Hg10 mi
9:56 AM65 °FScattered clouds.6 mph65%30.12 "Hg10 mi
8:56 AM62 °FPartly sunny.6 mph73%30.12 "Hg7 mi
7:56 AM58 °FPartly sunny.6 mph78%30.11 "Hg7 mi
6:56 AM56 °FPartly sunny.No wind81%30.10 "Hg7 mi
5:56 AM55 °FScattered clouds.No wind77%30.08 "Hg7 mi
4:56 AM53 °FClear.No wind86%30.08 "Hg10 mi
3:56 AM54 °FClear.No wind83%30.07 "Hg10 mi
2:56 AM56 °FClear.No wind81%30.06 "Hg10 mi
1:56 AM57 °FClear.No wind81%30.05 "Hg10 mi
12:56 AM56 °FClear.No wind83%30.06 "Hg10 mi
11:56 PM
Sat, May 2
60 °FClear.No wind72%30.06 "Hg10 mi
10:56 PM58 °FClear.No wind81%30.06 "Hg10 mi
9:56 PM61 °FClear.No wind70%30.06 "Hg10 mi
Weather by CustomWeather, © 2015

See weather overviewHow to use our weather pages